Vertical_Velocity
1 1 1 1 1 2 2 1 1 1 0 0 -1 -2 -2 -2 -2 -2 -2 -2 -3 -3 -2 -2 -2 -1 2 6 4 3 3 4 2 0 -0 2 3 1 -1 -2 2 6 9 10 10 9 6 2 2 4 6 10 14 14 11 5 4 5 5 4 1 0 1 2 2 2 2 0 0
0 0 1 1 1 2 2 1 1 -0 -1 -1 -1 -1 -2 -1 -1 -2 -2 -2 -2 -3 -2 -2 -1 2 5 7 4 2 1 2 0 -1 -0 1 0 -2 -4 -6 -5 -4 -4 -3 -1 0 1 2 4 5 7 9 10 7 4 4 3 3 4 7 4 3 2 1 1 2 2 1 0
-0 1 1 2 2 2 1 0 -0 -1 -1 -1 -1 -1 -1 -1 -2 -2 -2 -2 -2 -2 -1 -0 1 3 5 5 2 1 1 2 1 1 1 -0 -2 -4 -6 -7 -7 -7 -6 -4 -2 -1 0 2 3 4 4 5 4 3 2 2 3 4 5 4 4 3 2 1 1 2 2 1 1
-0 1 2 2 1 1 -0 -1 -1 -1 -1 -1 -1 -1 -1 -1 -2 -3 -3 -2 -1 -1 0 2 2 3 3 2 1 2 2 2 2 1 1 -0 -1 -2 -3 -4 -4 -5 -4 -2 -1 0 1 2 2 2 2 2 2 1 1 2 3 2 1 -0 1 1 1 0 1 1 1 1 2
0 1 2 1 0 -0 -1 -1 -0 -0 -0 -0 -1 -1 -2 -2 -3 -3 -2 -1 -1 0 2 3 3 1 1 0 1 2 3 3 1 -0 -1 1 3 5 5 6 3 1 -1 -0 1 1 2 2 1 1 1 1 0 0 0 0 -0 -1 -1 0 1 1 1 0 1 1 1 0 1
0 1 1 1 -0 -1 -1 -0 0 0 -0 -1 -1 -2 -2 -2 -2 -1 -1 -0 -0 1 2 3 2 0 -0 -0 0 1 1 1 -0 -2 -3 -3 -3 -2 -2 -2 -1 -1 -0 0 1 1 2 2 1 1 1 1 -0 -0 0 1 -0 -0 0 1 1 2 2 1 2 2 2 1 2
-0 0 0 0 -0 -1 -1 -0 -0 -0 -1 -2 -2 -2 -1 0 1 1 1 1 0 1 1 1 -0 -1 -2 -2 -2 -1 -1 -1 -1 -1 -1 -2 -1 -1 -1 -2 -1 -1 -0 -0 0 1 1 2 2 1 1 2 0 -0 0 1 0 0 1 1 1 3 4 0 2 3 3 1 2
-0 -0 -0 -1 -1 -1 -1 -1 -1 -2 -2 -1 -0 1 2 3 3 2 2 1 -0 -1 -1 -1 -2 -2 -3 -3 -3 -2 -1 -0 0 1 1 1 0 -0 -1 -1 -1 -1 -1 -0 -0 0 0 1 1 1 0 1 0 -0 -0 1 -1 -0 0 0 0 2 4 2 1 1 1 0 0
-1 -1 -1 -1 -1 -1 -2 -3 -3 -2 -1 1 2 3 3 3 2 1 0 -1 -2 -2 -2 -2 -2 -2 -3 -3 -3 -2 -1 0 1 1 2 1 0 -0 -1 -0 -1 -1 -1 -1 -1 -1 -1 -1 -1 -1 -1 -1 -1 -1 -1 -0 -2 -2 -2 -0 -1 -0 1 2 -0 -1 -2 -1 -2
-1 -1 -1 -1 -1 -2 -3 -3 -2 -0 1 2 2 2 1 1 -0 -1 -2 -3 -2 -2 -1 -0 -1 -1 -1 -2 -2 -2 -1 -0 0 0 1 1 0 -0 -0 -0 -1 -2 -2 -2 -2 -2 -3 -3 -3 -3 -3 -2 -2 -3 -3 -2 -2 -3 -3 -2 -2 -2 -2 -1 -2 -3 -4 -3 -3
-1 -1 -0 -1 -1 -2 -2 -2 -0 1 2 1 0 -0 -1 -2 -2 -3 -3 -2 -2 -1 -0 1 1 1 1 0 -1 -1 -1 -1 -1 -0 0 1 1 0 -0 -1 -1 -2 -2 -3 -3 -3 -4 -4 -4 -4 -4 -3 -3 -3 -3 -3 -3 -3 -4 -3 -3 -3 -4 -4 -4 -4 -5 -4 -3
0 0 0 -0 -1 -1 -1 -1 0 1 0 -1 -1 -2 -2 -3 -3 -3 -2 -1 -1 -0 1 2 3 3 2 1 0 -0 -1 -1 -1 0 1 1 1 1 -0 -1 -1 -2 -2 -2 -3 -3 -3 -3 -3 -3 -3 -3 -2 -3 -3 -3 -3 -3 -4 -4 -3 -4 -4 -5 -4 -4 -4 -3 -3
1 1 0 -0 -1 -1 -1 -1 -0 -1 -1 -2 -2 -2 -2 -2 -1 -1 -0 -0 0 0 1 2 3 3 2 1 1 0 0 0 1 1 1 1 1 0 -0 -1 -1 -1 -2 -2 -2 -2 -2 -2 -1 -1 -2 -2 -2 -2 -2 -2 -2 -3 -3 -3 -3 -4 -4 -4 -4 -3 -3 -2 -2
1 0 0 -0 -0 -1 -1 -1 -1 -1 -2 -2 -1 -1 -0 0 1 1 1 1 1 1 0 0 1 1 1 1 1 1 1 1 1 2 1 1 0 0 -0 -1 -1 -1 -2 -2 -1 -1 -1 -1 -0 -0 -1 -1 -2 -2 -2 -2 -2 -2 -2 -3 -3 -4 -4 -3 -3 -2 -2 -3 -3
0 0 0 0 0 -0 -0 -0 -1 -1 -1 -1 -0 1 1 1 2 2 1 1 1 0 -1 -1 -1 -0 -0 0 1 1 1 2 2 1 1 0 -0 -0 -1 -1 -1 -1 -1 -1 -1 -0 0 0 0 -0 -1 -1 -2 -2 -2 -2 -2 -2 -2 -2 -3 -3 -3 -3 -2 -2 -2 -3 -3
0 1 1 1 0 0 0 0 0 0 0 0 1 1 1 1 1 1 1 0 0 0 -0 -1 -1 -1 -1 -0 0 1 1 1 1 1 0 -1 -1 -1 -1 -1 -1 -1 -1 -1 -1 -0 -0 -0 -0 -0 -1 -2 -2 -3 -3 -3 -3 -3 -2 -2 -2 -2 -2 -2 -1 -1 -2 -2 -3
1 1 1 1 0 0 1 1 1 1 1 1 1 1 1 0 1 1 0 0 1 0 0 -0 -1 -1 -1 -0 -0 0 0 0 0 -0 -1 -2 -2 -1 -1 -1 -1 -1 -1 -1 -1 -1 -1 -1 -1 -1 -2 -2 -3 -3 -3 -3 -3 -3 -3 -2 -2 -2 -2 -1 -1 -1 -1 -2 -2
1 1 1 1 1 1 2 2 2 2 2 1 1 1 1 0 0 0 0 1 1 1 1 0 -0 -1 -1 -0 -0 -0 -0 -0 -1 -1 -2 -2 -2 -2 -1 -1 -1 -1 -1 -1 -1 -1 -1 -1 -2 -2 -2 -3 -3 -3 -3 -3 -3 -3 -3 -3 -3 -2 -2 -2 -1 -1 -1 -1 -1
1 1 1 1 1 2 2 2 2 1 1 1 1 1 1 0 0 0 0 1 1 1 0 -0 -0 -1 -1 -1 -0 -0 -0 -1 -1 -1 -2 -2 -2 -1 -1 -1 -1 -1 -1 -1 -1 -2 -2 -2 -2 -2 -3 -3 -3 -3 -3 -3 -3 -3 -3 -3 -3 -3 -2 -2 -1 -1 -0 -0 -1
1 1 1 1 1 1 1 1 1 1 1 1 1 1 1 0 0 0 1 1 0 -0 -1 -1 -1 -1 -1 -1 -1 -1 -1 -1 -1 -1 -1 -1 -1 -1 -1 -1 -1 -1 -2 -2 -2 -2 -2 -2 -2 -3 -3 -3 -3 -3 -3 -3 -3 -3 -3 -3 -3 -3 -2 -2 -2 -1 -1 0 0
1 1 1 1 1 1 1 1 1 0 0 1 1 1 1 1 0 0 0 -0 -0 -1 -1 -1 -1 -1 -1 -1 -1 -1 -1 -1 -1 -1 -1 -1 -1 -1 -1 -1 -1 -2 -2 -2 -2 -2 -2 -2 -2 -3 -3 -3 -3 -3 -3 -3 -4 -4 -4 -3 -3 -3 -3 -2 -2 -1 -1 0 0
0 0 1 1 1 1 1 1 1 1 1 1 1 1 1 0 0 -0 -0 -0 -0 -0 -1 -1 -1 -1 -1 -1 -1 -1 -1 -1 -1 -1 -1 -1 -1 -1 -1 -1 -1 -2 -2 -2 -2 -2 -2 -2 -3 -3 -3 -3 -3 -3 -3 -3 -4 -4 -4 -4 -4 -3 -3 -2 -2 -1 -0 -0 -1
-0 0 1 1 1 1 1 1 1 1 1 1 0 0 0 -0 -0 -1 -1 -0 -0 -0 0 0 0 -0 -0 -1 -1 -1 -1 -1 -1 -1 -1 -1 -1 -1 -1 -1 -1 -1 -2 -2 -2 -2 -2 -3 -3 -3 -3 -3 -3 -3 -3 -4 -4 -5 -5 -5 -4 -4 -3 -2 -1 -1 -1 -1 -2
-0 0 1 1 0 0 0 0 1 0 0 0 -0 -0 -0 -1 -1 -1 -0 -0 0 0 1 1 0 -0 -0 -1 -1 -1 -1 -1 -1 -1 -1 -1 -1 -1 -1 -1 -1 -2 -2 -2 -2 -2 -2 -3 -3 -3 -3 -3 -3 -4 -4 -5 -5 -5 -5 -4 -4 -3 -2 -2 -1 -1 -1 -2 -3
-0 0 0 0 0 0 0 0 0 0 -0 -0 -0 -0 -0 -0 -0 -0 -0 0 1 1 1 0 0 -0 -1 -1 -1 -1 -1 -1 -1 -1 -1 -1 -1 -1 -1 -1 -2 -2 -2 -3 -3 -3 -3 -3 -3 -3 -3 -4 -5 -5 -6 -6 -5 -5 -4 -3 -3 -2 -2 -2 -2 -1 -1 -1 -3
-0 -0 0 -0 -0 -0 0 0 -0 -0 -0 -0 -0 -0 -0 -0 -0 -0 0 1 1 1 1 0 -0 -0 -1 -1 -1 -1 -1 -1 -1 -1 -1 -1 -1 -2 -2 -2 -2 -2 -3 -3 -3 -3 -3 -3 -4 -4 -5 -6 -7 -7 -7 -6 -5 -4 -3 -2 -2 -2 -2 -2 -2 -2 -1 -1 -2
-0 -0 -1 -1 -1 -0 -0 -1 -1 -1 -0 0 0 0 0 -0 -0 0 1 1 1 0 0 0 -0 -0 -1 -1 -1 -1 -1 -1 -1 -1 -1 -1 -1 -1 -1 -2 -2 -2 -3 -3 -3 -3 -4 -4 -5 -6 -7 -7 -7 -6 -5 -4 -3 -3 -2 -2 -2 -2 -2 -2 -2 -2 -2 -2 -1
-1 -1 -1 -1 -1 -1 -1 -1 -1 -0 0 0 1 0 0 0 0 0 0 0 0 0 -0 -0 -0 -0 -0 -0 -1 -1 -1 -0 -0 -0 -0 -0 -0 -0 -1 -1 -2 -2 -3 -3 -4 -4 -5 -6 -7 -7 -7 -6 -5 -4 -3 -2 -2 -2 -2 -2 -2 -2 -2 -2 -3 -2 -2 -1 -0
-1 -1 -1 -1 -1 -1 -1 -1 -0 0 1 1 1 1 0 0 0 0 0 0 0 0 -0 -0 -0 -0 -0 -0 -1 -0 0 1 1 1 1 0 0 -0 -0 -1 -2 -2 -3 -4 -5 -6 -7 -7 -6 -6 -5 -4 -3 -3 -3 -3 -3 -3 -3 -3 -3 -3 -3 -3 -3 -2 -1 -1 0
-1 -2 -2 -2 -1 -1 -1 -0 0 1 1 1 1 1 0 0 0 0 0 0 0 0 0 0 0 0 -0 -0 -0 0 1 1 1 1 1 1 0 0 -1 -1 -2 -3 -4 -5 -6 -6 -6 -6 -5 -5 -4 -3 -3 -3 -3 -4 -4 -4 -5 -5 -4 -4 -4 -3 -3 -2 -1 -1 -1
-2 -2 -2 -1 -1 -1 -0 0 1 1 1 1 1 0 0 0 0 0 0 0 0 0 0 0 0 -0 -0 -0 0 1 1 1 1 1 1 1 0 -0 -1 -2 -3 -3 -4 -4 -5 -5 -5 -5 -5 -4 -4 -3 -3 -4 -4 -5 -5 -5 -5 -5 -4 -4 -4 -3 -3 -3 -2 -2 -2
-2 -2 -1 -1 -1 -0 0 1 1 1 1 0 0 -0 -0 -0 -0 -0 0 0 0 0 0 -0 -0 -0 -0 0 1 1 2 1 1 0 0 1 0 -0 -1 -2 -3 -3 -3 -3 -4 -4 -4 -4 -4 -4 -4 -4 -4 -4 -4 -5 -5 -5 -5 -4 -4 -3 -3 -3 -3 -3 -3 -4 -4
-1 -1 -1 -0 -0 0 1 1 1 1 0 -0 -1 -1 -1 -1 -0 0 0 0 0 0 0 -0 -0 0 0 1 1 1 1 1 0 0 0 0 0 -1 -1 -2 -2 -2 -2 -2 -3 -3 -3 -3 -3 -3 -3 -3 -4 -4 -4 -5 -5 -5 -4 -4 -3 -3 -3 -3 -3 -4 -4 -4 -4
-1 -1 -0 -0 0 1 1 1 1 0 -0 -1 -1 -1 -0 0 0 0 1 0 0 0 0 -0 0 1 1 1 1 1 0 -0 -0 0 0 0 -0 -1 -1 -2 -2 -2 -2 -2 -2 -2 -2 -2 -2 -2 -2 -2 -3 -3 -4 -4 -4 -4 -4 -4 -3 -3 -3 -3 -3 -4 -4 -5 -5
-1 -1 -0 -0 0 1 1 1 1 0 0 0 -0 0 0 1 1 1 1 0 0 0 0 -0 0 1 1 1 0 0 0 0 0 0 0 -0 -1 -1 -1 -2 -2 -2 -1 -1 -1 -1 -1 -1 -1 -1 -1 -1 -2 -2 -3 -3 -4 -4 -4 -4 -3 -3 -3 -3 -4 -4 -4 -5 -5
-1 -1 -0 -0 0 0 1 1 1 1 1 1 1 1 2 2 2 1 1 0 0 0 0 -0 0 1 1 0 -0 0 0 0 0 -0 -0 -0 -1 -1 -1 -2 -2 -1 -1 -0 -0 -0 -0 -0 -0 -1 -1 -1 -1 -2 -2 -2 -3 -3 -3 -3 -3 -3 -4 -4 -4 -4 -4 -4 -4
-1 -0 -0 -0 -0 0 0 0 1 1 1 1 2 2 2 2 2 1 1 0 0 0 -0 -0 0 0 0 0 -0 -0 -0 0 0 -0 -1 -1 -1 -1 -1 -1 -1 -1 -1 -0 0 0 0 0 -0 -0 -1 -1 -1 -2 -2 -2 -3 -3 -3 -4 -4 -4 -4 -4 -4 -4 -4 -4 -3
-1 -0 -0 -0 -0 -0 0 0 1 1 1 1 2 2 2 2 1 1 0 0 0 0 -0 -0 0 0 0 0 -0 -0 -0 -0 0 0 -0 -1 -1 -0 -0 -0 -1 -1 -1 0 0 0 0 0 -0 -1 -1 -1 -2 -2 -2 -3 -3 -3 -4 -4 -4 -4 -4 -3 -3 -3 -3 -3 -2
-1 -1 -0 -0 -0 -0 -0 0 1 1 1 2 2 2 2 1 1 1 0 0 0 0 -0 -0 -0 -0 -0 0 0 -0 -1 -1 -0 0 0 -0 -0 -0 0 0 -0 -1 -1 -0 0 0 0 -0 -1 -1 -1 -2 -2 -2 -3 -3 -3 -3 -3 -3 -3 -3 -3 -2 -2 -2 -2 -2 -2
-1 -1 -1 -0 -0 -0 -0 0 0 1 1 1 1 1 1 0 0 0 -0 -0 -0 -0 -0 -0 -1 -0 -0 0 0 0 -0 -1 -0 0 0 0 -0 0 0 0 -0 -0 -0 0 0 0 -0 -1 -1 -2 -2 -2 -2 -3 -3 -3 -3 -3 -3 -3 -2 -2 -2 -2 -2 -2 -2 -2 -3
-1 -1 -1 -1 -1 -0 -0 0 0 0 0 0 0 -0 -0 -1 -0 -1 -1 -1 -1 -1 -1 -0 -0 -0 -0 0 0 0 0 -0 -0 -0 0 1 0 0 0 1 0 0 0 0 0 0 -0 -1 -2 -2 -2 -2 -2 -2 -2 -2 -2 -2 -2 -2 -2 -2 -2 -2 -2 -2 -2 -2 -2
Height
5760 5761 5761 5761 5761 5761 5761 5761 5761 5761 5761 5760 5760 5760 5760 5760 5759 5759 5759 5758 5758 5758 5758 5758 5758 5758 5758 5757 5755 5755 5755 5755 5754 5753 5753 5752 5752 5752 5751 5751 5751 5751 5750 5750 5749 5748 5745 5743 5743 5743 5742 5742 5743 5741 5737 5734 5733 5733 5731 5729 5728 5727 5725 5724 5723 5721 5719 5717 5715
5758 5758 5758 5758 5758 5758 5758 5758 5758 5758 5757 5757 5757 5757 5757 5756 5756 5756 5756 5755 5755 5755 5755 5755 5755 5755 5755 5753 5752 5752 5752 5752 5751 5750 5749 5749 5748 5748 5747 5747 5746 5745 5745 5744 5743 5743 5741 5740 5740 5739 5739 5739 5737 5735 5733 5731 5730 5729 5728 5725 5723 5722 5721 5719 5717 5716 5714 5713 5711
5754 5755 5755 5755 5755 5755 5755 5755 5754 5754 5754 5754 5754 5753 5753 5753 5753 5753 5753 5753 5752 5752 5752 5752 5752 5753 5753 5750 5750 5749 5749 5749 5748 5747 5747 5746 5745 5744 5743 5743 5742 5742 5741 5741 5740 5739 5738 5737 5737 5736 5735 5734 5732 5731 5729 5728 5727 5725 5723 5720 5718 5717 5715 5713 5712 5710 5709 5707 5706
5751 5752 5752 5752 5752 5752 5752 5752 5751 5751 5751 5751 5751 5751 5750 5750 5750 5750 5750 5749 5749 5749 5749 5750 5749 5750 5749 5748 5747 5747 5746 5746 5745 5744 5743 5743 5742 5741 5740 5739 5738 5738 5738 5738 5737 5736 5735 5734 5733 5731 5730 5729 5728 5726 5725 5723 5722 5719 5717 5715 5713 5711 5709 5708 5706 5704 5703 5702 5700
5748 5748 5748 5748 5748 5748 5748 5748 5748 5748 5748 5748 5748 5748 5747 5747 5747 5747 5747 5747 5747 5747 5747 5747 5747 5746 5746 5745 5745 5744 5743 5743 5742 5741 5740 5740 5739 5739 5739 5738 5737 5735 5734 5734 5733 5732 5731 5730 5728 5727 5726 5724 5723 5721 5719 5717 5716 5713 5711 5709 5708 5706 5704 5702 5700 5698 5697 5695 5693
5745 5745 5745 5745 5745 5745 5745 5745 5745 5745 5745 5745 5745 5745 5744 5744 5744 5744 5744 5744 5744 5744 5744 5744 5743 5743 5742 5742 5741 5741 5740 5739 5738 5738 5737 5737 5737 5736 5734 5733 5733 5732 5731 5730 5729 5728 5727 5726 5724 5723 5721 5720 5718 5716 5714 5713 5710 5708 5706 5704 5702 5700 5698 5697 5694 5693 5691 5689 5688
5742 5742 5742 5742 5742 5742 5742 5742 5742 5742 5742 5742 5742 5742 5742 5742 5742 5742 5742 5742 5742 5742 5741 5741 5740 5739 5738 5738 5738 5738 5737 5736 5736 5735 5734 5733 5732 5732 5731 5730 5729 5728 5728 5727 5726 5724 5723 5722 5720 5719 5717 5715 5714 5712 5709 5708 5706 5703 5701 5699 5697 5695 5693 5691 5689 5687 5686 5684 5683
5739 5739 5739 5739 5739 5739 5739 5739 5739 5739 5739 5739 5739 5739 5739 5739 5739 5739 5739 5739 5738 5738 5738 5737 5736 5736 5735 5735 5735 5734 5734 5733 5733 5732 5731 5730 5729 5728 5727 5727 5726 5725 5723 5723 5722 5720 5719 5718 5716 5714 5713 5711 5709 5707 5705 5703 5701 5698 5696 5694 5692 5689 5688 5686 5683 5682 5680 5679 5678
5736 5736 5736 5736 5736 5736 5736 5736 5736 5736 5736 5736 5737 5737 5737 5736 5736 5736 5736 5735 5735 5735 5734 5734 5733 5733 5732 5732 5732 5731 5731 5730 5730 5729 5728 5727 5726 5725 5724 5723 5722 5721 5720 5719 5718 5716 5715 5713 5712 5710 5708 5707 5705 5703 5700 5698 5696 5693 5691 5688 5687 5684 5682 5680 5678 5677 5675 5674 5673
5733 5733 5733 5733 5733 5733 5733 5733 5733 5733 5734 5733 5733 5733 5733 5733 5733 5733 5732 5732 5732 5731 5731 5731 5730 5730 5729 5729 5729 5728 5728 5727 5727 5726 5725 5724 5723 5722 5720 5719 5718 5717 5716 5715 5713 5712 5711 5709 5708 5706 5704 5702 5700 5698 5695 5693 5691 5688 5686 5683 5682 5680 5678 5676 5674 5673 5671 5669 5668
5730 5730 5730 5730 5730 5730 5730 5730 5731 5731 5731 5730 5730 5730 5730 5730 5729 5729 5729 5728 5728 5728 5728 5728 5728 5728 5727 5726 5726 5725 5725 5724 5723 5723 5722 5721 5719 5718 5717 5716 5715 5714 5713 5711 5710 5708 5707 5705 5704 5702 5700 5698 5696 5693 5691 5688 5686 5683 5681 5679 5677 5676 5674 5672 5670 5669 5667 5665 5663
5728 5728 5728 5728 5728 5728 5728 5728 5728 5728 5728 5727 5727 5727 5727 5726 5726 5726 5726 5726 5726 5726 5726 5726 5725 5725 5724 5723 5723 5722 5722 5721 5720 5719 5718 5718 5716 5715 5714 5713 5712 5710 5709 5708 5706 5705 5703 5702 5700 5698 5696 5694 5692 5689 5687 5684 5682 5679 5677 5675 5673 5672 5670 5668 5666 5665 5663 5661 5658
5725 5725 5725 5725 5725 5725 5725 5725 5725 5725 5724 5724 5724 5724 5724 5723 5723 5723 5723 5723 5723 5723 5723 5723 5723 5722 5721 5721 5720 5719 5718 5718 5717 5716 5715 5714 5713 5712 5711 5709 5708 5707 5706 5704 5703 5701 5700 5698 5696 5694 5692 5690 5688 5685 5683 5680 5678 5675 5673 5671 5669 5668 5666 5664 5663 5661 5658 5656 5654
5722 5722 5722 5722 5722 5722 5722 5722 5722 5722 5722 5722 5721 5721 5721 5721 5721 5721 5721 5721 5721 5721 5720 5720 5719 5719 5718 5718 5717 5716 5716 5715 5714 5713 5712 5711 5710 5709 5708 5706 5705 5704 5702 5701 5699 5698 5696 5694 5693 5691 5688 5686 5683 5681 5679 5676 5674 5672 5670 5668 5666 5664 5663 5661 5659 5657 5655 5653 5650
5720 5720 5719 5719 5719 5719 5719 5719 5719 5719 5719 5719 5719 5719 5719 5719 5719 5719 5719 5718 5718 5718 5717 5717 5716 5716 5715 5715 5714 5713 5713 5712 5711 5710 5709 5708 5707 5705 5704 5703 5702 5701 5699 5698 5696 5695 5693 5691 5689 5687 5685 5683 5680 5678 5675 5673 5670 5668 5666 5664 5663 5661 5659 5657 5655 5653 5651 5649 5647
5717 5717 5717 5717 5717 5717 5717 5717 5717 5717 5717 5717 5717 5717 5717 5716 5716 5716 5716 5715 5715 5714 5714 5714 5713 5713 5713 5712 5711 5710 5709 5708 5707 5706 5705 5704 5703 5702 5701 5700 5699 5698 5696 5695 5693 5692 5690 5688 5686 5684 5682 5679 5677 5674 5672 5669 5667 5665 5663 5661 5659 5658 5656 5654 5652 5650 5648 5646 5644
5714 5714 5714 5714 5714 5714 5714 5714 5714 5714 5714 5714 5714 5714 5714 5714 5713 5713 5713 5713 5712 5712 5711 5711 5710 5710 5709 5708 5708 5707 5706 5705 5704 5703 5702 5701 5700 5699 5698 5697 5696 5694 5693 5692 5690 5688 5687 5685 5683 5681 5678 5676 5673 5671 5668 5666 5664 5662 5660 5658 5656 5654 5653 5651 5649 5648 5646 5643 5642
5712 5712 5711 5711 5711 5711 5711 5712 5712 5712 5711 5711 5711 5711 5711 5711 5711 5710 5710 5710 5709 5709 5708 5708 5708 5707 5706 5706 5705 5704 5703 5702 5701 5700 5699 5698 5697 5696 5695 5694 5693 5691 5690 5688 5687 5685 5684 5682 5680 5678 5676 5673 5671 5668 5666 5663 5661 5658 5657 5655 5653 5651 5650 5648 5647 5645 5643 5641 5639
5709 5709 5709 5709 5709 5709 5709 5709 5709 5709 5709 5708 5708 5708 5708 5708 5708 5708 5707 5707 5707 5706 5706 5705 5704 5704 5703 5703 5702 5701 5700 5699 5698 5697 5696 5695 5694 5693 5692 5691 5690 5688 5687 5686 5684 5683 5681 5679 5677 5675 5673 5670 5668 5666 5663 5661 5658 5656 5654 5652 5650 5648 5647 5645 5644 5642 5641 5639 5637
5706 5706 5706 5706 5706 5706 5706 5706 5706 5706 5706 5706 5705 5705 5705 5705 5705 5705 5704 5704 5703 5703 5703 5702 5702 5701 5701 5700 5699 5698 5697 5696 5695 5694 5693 5693 5692 5690 5689 5688 5687 5686 5684 5683 5681 5680 5678 5676 5674 5672 5670 5668 5666 5663 5661 5658 5656 5653 5651 5649 5648 5646 5644 5643 5641 5640 5638 5637 5635
5704 5704 5704 5704 5703 5703 5703 5703 5703 5703 5703 5703 5703 5703 5702 5702 5702 5702 5701 5701 5701 5700 5700 5699 5699 5698 5698 5697 5696 5695 5695 5694 5693 5692 5691 5690 5689 5688 5687 5685 5684 5683 5682 5680 5679 5677 5675 5674 5672 5670 5668 5665 5663 5661 5658 5656 5653 5651 5649 5647 5645 5644 5642 5641 5639 5638 5636 5635 5633
5701 5701 5701 5701 5701 5701 5701 5700 5700 5700 5700 5700 5700 5700 5700 5699 5699 5699 5698 5698 5698 5697 5697 5697 5696 5696 5695 5694 5693 5693 5692 5691 5690 5689 5688 5687 5686 5685 5684 5683 5682 5680 5679 5678 5676 5675 5673 5671 5669 5667 5665 5663 5661 5658 5656 5654 5651 5649 5647 5645 5643 5642 5640 5638 5637 5636 5634 5633 5632
5698 5698 5698 5698 5698 5698 5698 5698 5698 5698 5698 5697 5697 5697 5697 5697 5696 5696 5696 5695 5695 5695 5694 5694 5694 5693 5693 5692 5691 5690 5689 5688 5688 5687 5686 5685 5684 5683 5682 5680 5679 5678 5677 5675 5674 5672 5670 5669 5667 5665 5663 5660 5658 5656 5654 5652 5649 5647 5645 5643 5641 5640 5638 5637 5635 5634 5633 5632 5630
5696 5696 5696 5696 5696 5695 5695 5695 5695 5695 5695 5695 5694 5694 5694 5694 5693 5693 5693 5693 5693 5693 5692 5692 5691 5691 5690 5689 5688 5688 5687 5686 5685 5684 5683 5683 5681 5680 5679 5678 5677 5676 5674 5673 5671 5670 5668 5666 5664 5663 5660 5658 5656 5654 5652 5649 5647 5645 5643 5642 5640 5638 5637 5635 5634 5633 5631 5630 5629
5694 5693 5693 5693 5693 5693 5693 5693 5693 5693 5692 5692 5692 5692 5691 5691 5691 5691 5691 5691 5690 5690 5690 5689 5688 5688 5687 5687 5686 5685 5684 5683 5683 5682 5681 5680 5679 5678 5677 5676 5674 5673 5672 5671 5669 5668 5666 5664 5662 5660 5658 5656 5654 5652 5649 5647 5645 5643 5642 5640 5638 5637 5635 5634 5633 5631 5630 5628 5627
5691 5691 5691 5691 5691 5691 5690 5690 5690 5690 5690 5689 5689 5689 5689 5689 5689 5689 5688 5688 5688 5688 5687 5687 5686 5685 5685 5684 5683 5683 5682 5681 5680 5679 5679 5678 5677 5676 5675 5673 5672 5671 5670 5668 5667 5665 5664 5662 5660 5658 5656 5654 5652 5650 5648 5646 5644 5642 5640 5639 5637 5636 5634 5633 5631 5630 5628 5627 5626
5689 5689 5689 5688 5688 5688 5688 5688 5688 5687 5687 5687 5687 5687 5687 5687 5686 5686 5686 5686 5686 5685 5685 5684 5683 5683 5682 5682 5681 5680 5680 5679 5678 5677 5676 5676 5675 5673 5673 5671 5670 5669 5668 5666 5665 5663 5662 5660 5658 5656 5654 5652 5650 5648 5646 5645 5643 5641 5639 5638 5636 5634 5633 5631 5630 5629 5627 5626 5625
5687 5687 5686 5686 5686 5686 5685 5685 5685 5685 5685 5685 5685 5685 5684 5684 5684 5684 5684 5684 5683 5683 5682 5682 5681 5680 5680 5679 5679 5678 5678 5677 5676 5675 5674 5673 5673 5672 5670 5669 5668 5667 5666 5664 5663 5661 5659 5658 5656 5654 5652 5650 5649 5647 5645 5644 5642 5640 5638 5636 5634 5633 5631 5630 5629 5628 5626 5625 5623
5685 5684 5684 5684 5684 5683 5683 5683 5683 5683 5683 5683 5683 5683 5682 5682 5682 5682 5682 5681 5681 5681 5680 5679 5679 5678 5678 5677 5676 5676 5675 5674 5674 5673 5672 5671 5670 5669 5668 5667 5666 5665 5663 5662 5661 5659 5658 5656 5654 5653 5651 5649 5648 5646 5644 5643 5641 5639 5637 5635 5633 5632 5630 5629 5628 5626 5625 5624 5623
5683 5682 5682 5682 5682 5682 5682 5682 5681 5681 5681 5681 5681 5680 5680 5680 5680 5680 5679 5679 5679 5678 5678 5677 5676 5676 5675 5675 5674 5674 5673 5672 5672 5671 5670 5669 5668 5667 5666 5665 5664 5663 5661 5660 5659 5657 5656 5654 5653 5652 5650 5648 5647 5645 5643 5642 5640 5638 5636 5634 5633 5631 5629 5628 5627 5626 5624 5623 5622
5681 5680 5680 5680 5680 5680 5680 5680 5679 5679 5679 5678 5678 5678 5678 5678 5678 5678 5677 5677 5677 5676 5675 5675 5674 5673 5673 5673 5672 5672 5671 5670 5669 5668 5668 5667 5666 5665 5664 5663 5662 5660 5659 5658 5657 5656 5654 5653 5652 5650 5649 5647 5646 5644 5642 5640 5638 5637 5635 5633 5632 5630 5629 5628 5626 5625 5624 5623 5621
5679 5679 5678 5678 5678 5678 5678 5678 5678 5677 5677 5676 5676 5676 5676 5675 5675 5675 5675 5675 5674 5674 5673 5673 5672 5671 5671 5670 5670 5669 5669 5668 5667 5666 5665 5664 5663 5663 5662 5661 5659 5658 5657 5656 5655 5654 5653 5652 5650 5649 5648 5646 5644 5643 5641 5639 5638 5636 5634 5633 5631 5630 5629 5627 5626 5625 5623 5622 5621
5677 5677 5677 5677 5676 5676 5676 5676 5675 5675 5674 5674 5674 5673 5673 5673 5673 5673 5673 5672 5672 5672 5671 5670 5670 5669 5669 5668 5668 5667 5667 5666 5665 5664 5663 5662 5661 5660 5659 5658 5658 5657 5655 5654 5653 5652 5651 5650 5649 5648 5646 5644 5643 5641 5640 5638 5637 5635 5634 5632 5631 5629 5628 5627 5625 5624 5623 5622 5620
5675 5675 5675 5674 5674 5674 5674 5673 5673 5673 5672 5672 5672 5672 5671 5671 5671 5671 5671 5670 5670 5669 5669 5668 5668 5667 5667 5666 5666 5665 5664 5663 5663 5662 5661 5660 5659 5658 5658 5657 5656 5655 5654 5653 5652 5651 5649 5648 5647 5646 5644 5643 5641 5640 5638 5637 5636 5634 5633 5631 5630 5628 5627 5626 5624 5623 5622 5621 5620
5673 5673 5673 5673 5672 5672 5672 5671 5671 5670 5670 5670 5670 5669 5669 5669 5669 5668 5668 5668 5668 5667 5666 5666 5665 5665 5664 5664 5663 5663 5662 5661 5661 5660 5659 5658 5657 5656 5656 5655 5654 5653 5652 5651 5650 5649 5648 5647 5645 5644 5643 5641 5640 5638 5637 5636 5634 5633 5632 5630 5629 5627 5626 5625 5623 5622 5621 5620 5619
5671 5671 5670 5670 5670 5670 5669 5669 5669 5668 5668 5668 5668 5668 5667 5667 5667 5666 5666 5666 5665 5665 5664 5663 5663 5663 5662 5662 5661 5661 5660 5659 5658 5658 5657 5656 5655 5654 5654 5653 5652 5651 5650 5649 5648 5647 5646 5645 5643 5642 5641 5639 5638 5637 5635 5634 5633 5632 5630 5629 5628 5626 5625 5623 5622 5621 5620 5619 5618
5669 5668 5668 5668 5668 5668 5667 5667 5667 5666 5666 5666 5666 5665 5665 5665 5664 5664 5663 5663 5663 5662 5662 5661 5661 5660 5660 5659 5659 5658 5658 5657 5656 5656 5655 5654 5653 5653 5652 5651 5650 5649 5648 5648 5646 5645 5644 5643 5642 5640 5639 5638 5636 5635 5634 5633 5631 5630 5629 5628 5626 5625 5623 5622 5621 5620 5619 5618 5617
5667 5666 5666 5666 5666 5666 5665 5665 5665 5664 5664 5664 5663 5663 5663 5663 5662 5662 5661 5661 5660 5660 5659 5659 5658 5658 5658 5657 5656 5656 5655 5655 5654 5653 5653 5652 5651 5651 5650 5649 5648 5648 5647 5645 5644 5643 5642 5641 5640 5638 5637 5636 5635 5633 5632 5631 5630 5628 5627 5626 5625 5623 5622 5621 5620 5619 5618 5617 5616
5664 5664 5664 5664 5664 5663 5663 5663 5663 5662 5662 5662 5661 5661 5660 5660 5660 5659 5659 5658 5658 5657 5657 5657 5656 5655 5655 5654 5654 5653 5653 5653 5652 5651 5651 5650 5649 5648 5648 5647 5646 5645 5644 5643 5642 5641 5640 5639 5638 5637 5635 5634 5633 5632 5630 5629 5628 5627 5626 5625 5623 5623 5621 5620 5619 5618 5617 5616 5615
5662 5662 5662 5662 5661 5661 5661 5661 5661 5660 5660 5659 5659 5659 5658 5658 5657 5657 5656 5656 5655 5655 5654 5654 5653 5653 5652 5652 5651 5651 5651 5650 5649 5649 5648 5648 5647 5646 5646 5645 5644 5643 5642 5641 5640 5639 5638 5637 5636 5634 5633 5632 5631 5630 5629 5628 5627 5626 5625 5623 5623 5621 5620 5619 5618 5616 5615 5614 5613
5660 5660 5660 5659 5659 5659 5659 5659 5658 5658 5658 5657 5657 5656 5656 5655 5655 5654 5654 5653 5653 5652 5652 5651 5651 5650 5650 5649 5649 5648 5648 5648 5647 5647 5646 5645 5645 5644 5643 5643 5642 5641 5640 5639 5638 5637 5636 5635 5634 5633 5632 5630 5629 5628 5627 5626 5625 5624 5623 5622 5621 5620 5618 5617 5616 5615 5614 5613 5612